{"data":{"norad_id":53892,"intl_designator":"2022-119G","name":"STARLINK-5046","alt_names":[],"object_type":"PAYLOAD","status":"ACTIVE","operator":null,"country":"US","launch_date":"2022-09-24","launch_site_code":"AFETR","launch_vehicle":null,"mission":null,"orbit_class":"UNKNOWN","rcs_meters":null,"size_class":null,"mass_kg":null,"dimensions":null,"purposes":["comms"],"wikipedia_slug":null,"has_3d_model":false,"image_url":null,"decayed_at":null,"tle_current":{"epoch":"2026-09-20T22:00:03.000096Z","epoch_age_seconds":48100,"freshness":"FRESH","line1":"1 53892U 22119G   26263.91670139  .01151506  00000+0  24537-1 0  9997","line2":"2 53892  53.1610 161.6896 0000938  73.3007 287.7360 15.41638089  5825","mean_motion":15.41638089,"eccentricity":9.38e-5,"inclination_deg":53.161,"raan_deg":161.6896,"arg_perigee_deg":73.3007,"mean_anomaly_deg":287.736,"bstar":0.024537,"rev_number":582,"period_min":93.407136880879,"perigee_km":440.63466878369,"apogee_km":441.91399034911,"semimajor_km":6819.4113295664,"source":"CELESTRAK","updated_at":"2026-09-21T09:00:33.029006Z"}}}